M I D A S
Marine Information and Data Acquisition System
Tripno 1822 of the Zeeleeuw from 2009-12-08 08:14:36 to 2009-12-08 17:35:47
Back to CruiseResearch ActivitiesStationsMapUnderway DataData graphs

EquipmentUnitsComments
TimeDGPSUTC
LatitudeDGPSDM.mWGS84
LongitudeDGPSDM.mWGS84
SpeedMeteo Stationm/sRelative wind speed
DirectionMeteo StationdegRelative wind direction
TemperatureMeteo Stationdeg CelciusAir temperature
PressureMeteo StationPaAtmospheric pressure
HumidityMeteo Station%Relative humidity
Missing or incorrect values are displayed as -999
Metereological data collected by the RV Zeeleeuw from 2009-12-08 08:37:15 to 2009-12-08 17:41:43
Time Latitude Longitude Speed Direction Temperature Pressure Humidity
2009-12-08 08:38 51°13.677 2°55.895 7.8 36 9.1 100920 42
2009-12-08 08:39 51°13.696 2°55.806 5.6 37 9.2 100930 40
2009-12-08 08:40 51°13.707 2°55.756 4.3 260 9.2 100930 40
2009-12-08 08:41 51°13.71 2°55.738 3.3 32 9.2 100940 40
2009-12-08 08:42 51°13.763 2°55.69 7.5 325 9.1 100920 43
2009-12-08 08:43 51°13.88 2°55.603 4.7 327 9.1 100900 41
2009-12-08 08:44 51°14.014 2°55.522 8.2 319 9.1 100890 42
2009-12-08 08:45 51°14.147 2°55.427 15 35 9.1 100870 41
2009-12-08 08:46 51°14.26 2°55.27 17.1 322 9.1 100890 42
2009-12-08 08:47 51°14.367 2°55.045 16.5 318 9.1 100850 41
2009-12-08 08:48 51°14.496 2°54.853 15 38 9.1 100900 42
2009-12-08 08:49 51°14.652 2°54.728 17.1 35 9.1 100870 42
2009-12-08 08:50 51°14.801 2°54.58 16.9 35 9.1 100880 43
2009-12-08 08:51 51°14.953 2°54.441 15.8 34 9.1 100870 42
2009-12-08 08:52 51°15.105 2°54.3 15.3 33 9.2 100890 43
2009-12-08 08:53 51°15.26 2°54.165 18.3 35 9.2 100880 42
2009-12-08 08:54 51°15.407 2°54.023 15.4 34 9.1 100870 42
2009-12-08 08:55 51°15.551 2°53.88 17.8 37 9.1 100870 42
2009-12-08 08:56 51°15.7 2°53.736 15.7 37 9.1 100870 42
2009-12-08 08:57 51°15.846 2°53.593 17.2 35 9.1 100870 43
2009-12-08 08:58 51°15.994 2°53.451 17 34 9.1 100870 42
2009-12-08 08:59 51°16.147 2°53.307 14.7 34 9.2 100880 43
2009-12-08 09:00 51°16.308 2°53.186 16.2 37 9.2 100880 43
2009-12-08 09:01 51°16.471 2°53.07 19.5 34 9.1 100870 42
2009-12-08 09:02 51°16.635 2°52.953 16.4 32 9.2 100880 43
2009-12-08 09:03 51°16.798 2°52.836 16.2 35 9.2 100880 43
2009-12-08 09:04 51°16.959 2°52.729 16.2 35 9.2 100890 43
2009-12-08 09:05 51°17.125 2°52.643 17.4 33 9.2 100880 42
2009-12-08 09:06 51°17.301 2°52.573 16.1 238 9.2 100880 42
2009-12-08 09:07 51°17.479 2°52.536 15.1 237 9.2 100890 42
2009-12-08 09:08 51°17.663 2°52.539 15.5 239 9.2 100890 43
2009-12-08 09:09 51°17.848 2°52.55 14.2 31 9.2 100890 42
2009-12-08 09:10 51°18.024 2°52.548 13.8 239 9.2 100890 43
2009-12-08 09:11 51°18.2 2°52.554 15.3 242 9.2 100880 43
2009-12-08 09:12 51°18.381 2°52.55 16.1 243 9.2 100890 42
2009-12-08 09:13 51°18.564 2°52.547 15.4 239 9.2 100910 43
2009-12-08 09:14 51°18.745 2°52.542 13.3 234 9.2 100890 44
2009-12-08 09:15 51°18.926 2°52.542 18.1 243 9.2 100890 43
2009-12-08 09:16 51°19.11 2°52.535 15.3 240 9.2 100900 43
2009-12-08 09:17 51°19.289 2°52.532 13.7 32 9.2 100910 43
2009-12-08 09:18 51°19.472 2°52.525 15.7 242 9.2 100920 44
2009-12-08 09:19 51°19.651 2°52.521 15.4 242 9.2 100930 42
2009-12-08 09:20 51°19.832 2°52.518 14.2 30 9.2 100900 42
2009-12-08 09:21 51°20.01 2°52.5 16.5 235 9.3 100920 42
2009-12-08 09:22 51°20.162 2°52.374 15.8 317 9.3 100920 44
2009-12-08 09:23 51°20.275 2°52.185 16.3 320 9.2 100910 43
2009-12-08 09:24 51°20.384 2°51.981 15.1 316 9.3 100930 43
2009-12-08 09:25 51°20.504 2°51.787 13.4 33 9.3 100920 43
2009-12-08 09:26 51°20.639 2°51.612 14.8 39 9.4 100920 43
2009-12-08 09:27 51°20.795 2°51.475 17.1 36 9.4 100920 43
2009-12-08 09:28 51°20.956 2°51.362 13.2 32 9.4 100920 43
2009-12-08 09:29 51°21.127 2°51.305 15 238 9.5 100930 43
2009-12-08 09:30 51°21.302 2°51.263 15.5 243 9.4 100930 42
2009-12-08 09:31 51°21.478 2°51.255 13.9 245 9.4 100930 44
2009-12-08 09:32 51°21.651 2°51.259 15.9 237 9.5 100940 44
2009-12-08 09:33 51°21.827 2°51.261 16.6 243 9.4 100930 44
2009-12-08 09:34 51°22.001 2°51.278 10.3 251 9.4 100940 44
2009-12-08 09:35 51°22.17 2°51.366 14.2 259 9.4 100960 42
2009-12-08 09:36 51°22.337 2°51.467 12 250 9.4 100960 45
2009-12-08 09:37 51°22.504 2°51.559 12.4 255 9.5 100970 42
2009-12-08 09:38 51°22.672 2°51.651 12.6 248 9.5 100980 44
2009-12-08 09:39 51°22.842 2°51.738 13.8 253 9.5 100970 45
2009-12-08 09:40 51°23.012 2°51.827 12.8 246 9.4 100980 43
2009-12-08 09:41 51°23.18 2°51.917 14 245 9.4 100970 46
2009-12-08 09:42 51°23.346 2°52.005 14.1 247 9.4 100970 46
2009-12-08 09:43 51°23.513 2°52.097 13.9 244 9.4 100960 45
2009-12-08 09:44 51°23.682 2°52.179 14.9 247 9.5 100970 44
2009-12-08 09:45 51°23.848 2°52.271 15.3 242 9.5 100960 43
2009-12-08 09:46 51°24.016 2°52.358 13.2 245 9.5 100970 44
2009-12-08 09:47 51°24.179 2°52.469 15.9 242 9.5 100960 43
2009-12-08 09:48 51°24.353 2°52.488 13.9 237 9.6 100970 45
2009-12-08 09:49 51°24.527 2°52.5 13 236 9.6 100960 44
2009-12-08 09:50 51°24.701 2°52.531 14.8 31 9.6 100960 45
2009-12-08 09:51 51°24.875 2°52.561 16.5 240 9.6 100950 44
2009-12-08 09:52 51°25.049 2°52.589 15.2 34 9.6 100970 43
2009-12-08 09:53 51°25.224 2°52.621 13.9 238 9.6 100970 43
2009-12-08 09:54 51°25.398 2°52.661 16.4 241 9.7 100970 45
2009-12-08 09:55 51°25.568 2°52.708 14.2 242 9.7 100970 43
2009-12-08 09:56 51°25.74 2°52.752 12.7 240 9.7 100970 43
2009-12-08 09:57 51°25.913 2°52.801 15 240 9.7 100970 43
2009-12-08 09:58 51°26.082 2°52.85 13.9 242 9.7 101000 44
2009-12-08 09:59 51°26.255 2°52.891 11.3 240 9.7 100990 43
2009-12-08 10:00 51°26.427 2°52.934 11.4 240 9.8 100990 43
2009-12-08 10:01 51°26.596 2°52.979 14.6 236 9.7 100990 43
2009-12-08 10:02 51°26.767 2°53.026 13.3 239 9.7 100980 42
2009-12-08 10:03 51°26.94 2°53.069 13.3 237 9.8 100980 42
2009-12-08 10:04 51°27.112 2°53.112 13.9 240 9.8 100980 43
2009-12-08 10:05 51°27.286 2°53.157 12.1 241 9.8 100990 43
2009-12-08 10:06 51°27.458 2°53.204 13.1 245 9.8 101000 42
2009-12-08 10:07 51°27.628 2°53.251 12.7 240 9.8 101000 44
2009-12-08 10:08 51°27.802 2°53.294 12.8 239 9.8 101000 44
2009-12-08 10:09 51°27.975 2°53.338 12.9 238 9.9 101000 44
2009-12-08 10:10 51°28.147 2°53.39 13.4 242 9.8 100990 44
2009-12-08 10:11 51°28.32 2°53.436 14 242 9.8 100990 42
2009-12-08 10:12 51°28.493 2°53.483 11.5 236 9.8 101000 44
2009-12-08 10:13 51°28.666 2°53.54 12.7 244 9.8 101000 42
2009-12-08 10:14 51°28.838 2°53.607 15.5 243 9.8 101000 42
2009-12-08 10:15 51°29.007 2°53.676 14.8 243 9.8 101000 43
2009-12-08 10:16 51°29.177 2°53.739 11.4 235 9.8 100990 42
2009-12-08 10:17 51°29.346 2°53.803 12.4 238 9.8 101010 42
2009-12-08 10:18 51°29.513 2°53.869 12.2 237 9.7 101020 42
2009-12-08 10:19 51°29.681 2°53.934 11.9 242 9.8 100980 43
2009-12-08 10:20 51°29.851 2°53.991 14.1 244 9.8 101020 43
2009-12-08 10:21 51°30.021 2°54.05 12.4 241 9.8 101000 42
2009-12-08 10:22 51°30.189 2°54.106 11.8 240 9.8 101010 42
2009-12-08 10:23 51°30.358 2°54.164 13.8 238 9.8 101010 44
2009-12-08 10:24 51°30.527 2°54.231 13.1 238 9.8 101010 43
2009-12-08 10:25 51°30.695 2°54.295 13.7 238 9.8 101010 44
2009-12-08 10:26 51°30.862 2°54.355 12.4 33 9.8 101000 43
2009-12-08 10:27 51°31.028 2°54.419 12 242 9.8 101010 43
2009-12-08 10:28 51°31.194 2°54.478 12 32 9.8 101010 44
2009-12-08 10:29 51°31.367 2°54.544 11.9 25 9.8 101020 42
2009-12-08 10:30 51°31.536 2°54.607 13.5 23 9.8 101010 42
2009-12-08 10:31 51°31.706 2°54.667 11.3 22 9.7 101020 43
2009-12-08 10:32 51°31.876 2°54.73 12 27 9.8 101030 42
2009-12-08 10:33 51°32.046 2°54.793 14.5 21 9.8 101020 44
2009-12-08 10:34 51°32.215 2°54.858 13.4 20 9.7 101010 44
2009-12-08 10:35 51°32.361 2°54.912 11.5 26 9.8 101030 42
2009-12-08 10:36 51°32.469 2°54.921 11.4 250 9.7 101040 42
2009-12-08 10:37 51°32.488 2°55.017 6.9 23 9.7 101060 41
2009-12-08 10:38 51°32.446 2°55.061 8.7 35 9.7 101050 43
2009-12-08 10:39 51°32.422 2°55.072 10.7 33 9.8 101050 44
2009-12-08 10:40 51°32.404 2°55.078 10.2 30 9.7 101050 41
2009-12-08 10:41 51°32.392 2°55.083 7.6 26 9.7 101050 46
2009-12-08 10:42 51°32.382 2°55.089 7.1 23 9.8 101060 45
2009-12-08 10:43 51°32.376 2°55.099 7.2 23 9.8 101080 43
2009-12-08 10:44 51°32.369 2°55.11 10.4 28 9.7 101070 43
2009-12-08 10:45 51°32.364 2°55.122 11 31 9.7 101080 42
2009-12-08 10:46 51°32.359 2°55.134 9.8 31 9.6 101080 44
2009-12-08 10:47 51°32.353 2°55.145 11 31 9.6 101080 42
2009-12-08 10:48 51°32.345 2°55.159 10.6 26 9.7 101070 43
2009-12-08 10:49 51°32.337 2°55.17 10.1 26 9.7 101070 42
2009-12-08 10:50 51°32.33 2°55.181 8.1 30 9.7 101070 45
2009-12-08 10:51 51°32.324 2°55.193 9 31 9.7 101070 43
2009-12-08 10:52 51°32.316 2°55.203 8.8 30 9.6 101060 42
2009-12-08 10:53 51°32.308 2°55.215 10.9 24 9.7 101060 45
2009-12-08 10:54 51°32.301 2°55.226 10.4 25 9.5 101060 44
2009-12-08 10:55 51°32.293 2°55.237 10.5 26 9.6 101060 44
2009-12-08 10:56 51°32.286 2°55.251 9.8 27 9.5 101060 43
2009-12-08 10:57 51°32.279 2°55.261 10.2 24 9.5 101060 41
2009-12-08 10:58 51°32.271 2°55.27 9.9 26 9.6 101060 45
2009-12-08 10:59 51°32.265 2°55.28 10 25 9.7 101060 44
2009-12-08 11:00 51°32.259 2°55.29 11.1 29 9.6 101070 43
2009-12-08 11:01 51°32.245 2°55.304 9.8 31 9.6 101070 44
2009-12-08 11:02 51°32.211 2°55.352 4.1 28 9.6 101080 42
2009-12-08 11:03 51°32.226 2°55.414 7 261 9.7 101090 46
2009-12-08 11:04 51°32.274 2°55.445 11.8 254 9.8 101080 44
2009-12-08 11:05 51°32.351 2°55.492 10.5 247 9.8 101080 44
2009-12-08 11:06 51°32.445 2°55.55 11.2 246 9.7 101100 43
2009-12-08 11:07 51°32.503 2°55.517 11.6 321 9.7 101080 44
2009-12-08 11:08 51°32.501 2°55.442 10.3 350 9.7 101080 44
2009-12-08 11:09 51°32.474 2°55.42 9.7 8 9.7 101080 42
2009-12-08 11:10 51°32.452 2°55.421 11.7 13 9.6 101080 42
2009-12-08 11:11 51°32.436 2°55.426 10.2 18 9.6 101090 42
2009-12-08 11:12 51°32.422 2°55.435 8.8 25 9.7 101100 43
2009-12-08 11:13 51°32.411 2°55.441 7.7 26 9.8 101100 44
2009-12-08 11:14 51°32.399 2°55.448 10.4 25 9.9 101100 45
2009-12-08 11:15 51°32.387 2°55.453 9.7 28 9.8 101100 44
2009-12-08 11:16 51°32.374 2°55.458 9.2 27 9.8 101100 43
2009-12-08 11:17 51°32.363 2°55.465 10.5 32 9.8 101120 44
2009-12-08 11:18 51°32.35 2°55.471 8.2 23 9.8 101120 45
2009-12-08 11:19 51°32.336 2°55.478 11.3 22 9.8 101110 45
2009-12-08 11:20 51°32.324 2°55.487 8.8 27 9.8 101110 44
2009-12-08 11:21 51°32.31 2°55.494 8.3 26 9.9 101120 46
2009-12-08 11:22 51°32.294 2°55.501 11 21 9.9 101110 44
2009-12-08 11:23 51°32.279 2°55.507 9.2 20 9.8 101120 45
2009-12-08 11:24 51°32.264 2°55.513 12.1 21 9.9 101120 44
2009-12-08 11:25 51°32.248 2°55.521 8.9 28 9.9 101100 44
2009-12-08 11:26 51°32.234 2°55.532 9.4 25 9.8 101100 45
2009-12-08 11:27 51°32.219 2°55.54 10.2 24 9.8 101120 46
2009-12-08 11:28 51°32.203 2°55.548 8.7 28 9.8 101120 45
2009-12-08 11:29 51°32.188 2°55.557 10.9 25 9.8 101120 43
2009-12-08 11:30 51°32.173 2°55.563 9.9 23 9.8 101120 43
2009-12-08 11:31 51°32.156 2°55.57 10 25 9.8 101130 44
2009-12-08 11:32 51°32.138 2°55.577 11 26 9.8 101130 43
2009-12-08 11:33 51°32.12 2°55.584 8.8 22 9.8 101130 45
2009-12-08 11:34 51°32.102 2°55.588 10.2 21 9.8 101130 43
2009-12-08 11:35 51°32.083 2°55.596 10.1 24 9.8 101140 44
2009-12-08 11:36 51°32.064 2°55.602 10.4 22 9.8 101130 46
2009-12-08 11:37 51°32.044 2°55.607 9.5 26 9.8 101120 45
2009-12-08 11:38 51°32.024 2°55.612 12.2 26 9.8 101140 46
2009-12-08 11:39 51°32.005 2°55.62 11 27 9.7 101140 44
2009-12-08 11:40 51°31.966 2°55.636 8.1 42 9.8 101140 46
2009-12-08 11:41 51°31.941 2°55.708 8.4 267 9.7 101130 42
2009-12-08 11:42 51°31.982 2°55.734 12.8 25 9.8 101110 44
2009-12-08 11:43 51°32.081 2°55.679 13.1 24 9.8 101080 45
2009-12-08 11:44 51°32.2 2°55.629 12.9 235 9.8 101060 43
2009-12-08 11:45 51°32.322 2°55.611 13 20 9.8 101090 43
2009-12-08 11:46 51°32.44 2°55.57 13.7 238 9.8 101080 43
2009-12-08 11:47 51°32.542 2°55.476 13.7 32 10 101080 43
2009-12-08 11:48 51°32.591 2°55.4 11.3 318 9.9 101090 45
2009-12-08 11:49 51°32.588 2°55.342 9.9 342 9.8 101110 43
2009-12-08 11:50 51°32.561 2°55.32 7.9 5 9.8 101120 45
2009-12-08 11:51 51°32.535 2°55.318 10.5 15 10 101120 46
2009-12-08 11:52 51°32.512 2°55.323 11.2 18 9.9 101140 44
2009-12-08 11:53 51°32.491 2°55.326 10.4 23 9.9 101140 45
2009-12-08 11:54 51°32.472 2°55.332 10.6 25 9.9 101130 43
2009-12-08 11:55 51°32.454 2°55.338 10.4 22 9.9 101150 44
2009-12-08 11:56 51°32.434 2°55.345 10.5 25 9.8 101140 45
2009-12-08 11:57 51°32.414 2°55.351 10.8 28 9.8 101140 44
2009-12-08 11:58 51°32.394 2°55.358 11.2 26 9.9 101140 45
2009-12-08 11:59 51°32.376 2°55.365 11 23 9.8 101140 45
2009-12-08 12:00 51°32.358 2°55.371 11.6 24 9.9 101150 45
2009-12-08 12:01 51°32.34 2°55.377 9.9 28 9.9 101140 42
2009-12-08 12:02 51°32.319 2°55.38 8.9 29 9.9 101140 46
2009-12-08 12:03 51°32.298 2°55.384 9.7 26 9.9 101150 45
2009-12-08 12:04 51°32.277 2°55.389 9.4 31 9.9 101150 43
2009-12-08 12:05 51°32.258 2°55.397 10 28 9.9 101130 46
2009-12-08 12:06 51°32.241 2°55.404 11.5 29 9.9 101140 45
2009-12-08 12:07 51°32.222 2°55.41 10.2 31 9.8 101120 43
2009-12-08 12:08 51°32.199 2°55.414 9.6 30 9.9 101130 43
2009-12-08 12:09 51°32.17 2°55.419 9.7 20 9.9 101140 42
2009-12-08 12:10 51°32.109 2°55.393 13.1 358 9.9 101130 45
2009-12-08 12:11 51°32.074 2°55.289 12 324 9.9 101120 44
2009-12-08 12:12 51°32.139 2°55.204 13.2 21 9.9 101110 45
2009-12-08 12:13 51°32.265 2°55.092 13.5 24 10 101090 43
2009-12-08 12:14 51°32.406 2°54.963 14.4 20 10 101100 44
2009-12-08 12:15 51°32.547 2°54.831 15.2 21 9.9 101090 43
2009-12-08 12:16 51°32.698 2°54.747 14.5 21 10 101100 43
2009-12-08 12:17 51°32.857 2°54.745 13.5 24 10 101120 44
2009-12-08 12:18 51°33.012 2°54.791 10.6 22 10 101120 43
2009-12-08 12:19 51°33.166 2°54.857 11.7 250 10.1 101150 43
2009-12-08 12:20 51°33.306 2°54.973 9.4 249 10.1 101160 43
2009-12-08 12:21 51°33.381 2°55.179 5 27 10.1 101170 43
2009-12-08 12:22 51°33.328 2°55.434 3 26 10.2 101160 46
2009-12-08 12:23 51°33.3 2°55.567 9.3 26 10.3 101170 42
2009-12-08 12:24 51°33.287 2°55.628 9.5 27 10.1 101170 44
2009-12-08 12:25 51°33.275 2°55.662 10.4 27 10 101160 43
2009-12-08 12:26 51°33.263 2°55.679 9.7 269 10.1 101180 42
2009-12-08 12:27 51°33.248 2°55.686 6.3 263 10 101170 42
2009-12-08 12:28 51°33.231 2°55.688 5.7 264 10 101170 42
2009-12-08 12:29 51°33.213 2°55.691 8.4 262 10.1 101150 45
2009-12-08 12:30 51°33.204 2°55.695 11.2 255 10.1 101160 43
2009-12-08 12:31 51°33.21 2°55.701 9.5 255 10.1 101160 44
2009-12-08 12:32 51°33.284 2°55.737 11.7 305 10.2 101160 44
2009-12-08 12:33 51°33.372 2°55.899 5.6 40 10.1 101170 42
2009-12-08 12:34 51°33.377 2°56.006 8.6 36 10.1 101170 45
2009-12-08 12:35 51°33.369 2°56.06 9.7 34 10 101180 43
2009-12-08 12:36 51°33.359 2°56.085 7.3 270 10 101180 42
2009-12-08 12:37 51°33.347 2°56.096 7.1 266 10.1 101170 42
2009-12-08 12:38 51°33.331 2°56.097 6.9 263 10.1 101180 45
2009-12-08 12:39 51°33.312 2°56.097 10.1 260 10.2 101190 43
2009-12-08 12:40 51°33.293 2°56.098 7.2 262 10.2 101180 44
2009-12-08 12:41 51°33.273 2°56.099 7.9 260 10.3 101170 43
2009-12-08 12:42 51°33.254 2°56.099 10.1 257 10.3 101180 45
2009-12-08 12:43 51°33.235 2°56.1 10.6 258 10.3 101170 45
2009-12-08 12:44 51°33.213 2°56.104 8.8 259 10.3 101180 43
2009-12-08 12:45 51°33.19 2°56.106 5.9 262 10.4 101180 42
2009-12-08 12:46 51°33.165 2°56.108 6.2 267 10.2 101190 46
2009-12-08 12:47 51°33.141 2°56.11 8 261 10.2 101190 44
2009-12-08 12:48 51°33.116 2°56.111 10.4 261 10.2 101180 45
2009-12-08 12:49 51°33.092 2°56.113 6.9 260 10.2 101200 42
2009-12-08 12:50 51°33.075 2°56.119 10 261 10.1 101190 45
2009-12-08 12:51 51°33.111 2°56.144 11 255 10.1 101200 42
2009-12-08 12:52 51°33.188 2°56.217 8.4 253 10.1 101190 45
2009-12-08 12:53 51°33.274 2°56.276 11.7 251 10.2 101190 44
2009-12-08 12:54 51°33.318 2°56.288 8.3 254 10.2 101170 44
2009-12-08 12:55 51°33.325 2°56.29 11.7 253 10.2 101200 42
2009-12-08 12:56 51°33.315 2°56.291 10.2 254 10.2 101200 43
2009-12-08 12:57 51°33.299 2°56.29 10.2 252 10.2 101190 44
2009-12-08 12:58 51°33.28 2°56.294 11.3 259 10.3 101200 43
2009-12-08 12:59 51°33.259 2°56.299 9 257 10.3 101200 45
2009-12-08 13:00 51°33.239 2°56.303 10.6 255 10.3 101200 44
2009-12-08 13:01 51°33.218 2°56.307 6.5 261 10.3 101210 44
2009-12-08 13:02 51°33.197 2°56.309 8.1 263 10.3 101200 45
2009-12-08 13:03 51°33.175 2°56.311 9.1 262 10.3 101200 46
2009-12-08 13:04 51°33.153 2°56.316 10.6 262 10.3 101210 43
2009-12-08 13:05 51°33.13 2°56.318 7.3 261 10.2 101220 42
2009-12-08 13:06 51°33.108 2°56.322 8.7 261 10.2 101220 45
2009-12-08 13:07 51°33.087 2°56.328 6.4 262 10.2 101240 42
2009-12-08 13:08 51°33.066 2°56.331 10.5 259 10.2 101220 45
2009-12-08 13:09 51°33.046 2°56.334 9.5 260 10.3 101220 45
2009-12-08 13:10 51°33.025 2°56.337 10.1 259 10.3 101200 45
2009-12-08 13:11 51°33.002 2°56.344 10.3 261 10.3 101210 44
2009-12-08 13:12 51°32.978 2°56.348 7.9 263 10.3 101230 42
2009-12-08 13:13 51°32.951 2°56.352 8.8 265 10.3 101220 45
2009-12-08 13:14 51°32.923 2°56.353 5.4 264 10.3 101220 44
2009-12-08 13:15 51°32.936 2°56.386 7.4 269 10.2 101230 42
2009-12-08 13:16 51°33.005 2°56.502 6.3 258 10.2 101240 44
2009-12-08 13:17 51°33.099 2°56.59 9 252 10.2 101210 43
2009-12-08 13:18 51°33.19 2°56.635 10.9 250 10.3 101230 45
2009-12-08 13:19 51°33.217 2°56.641 12 253 10.2 101230 43
2009-12-08 13:20 51°33.215 2°56.643 10.7 253 10.2 101220 44
2009-12-08 13:21 51°33.203 2°56.645 11.9 258 10.1 101240 45
2009-12-08 13:22 51°33.186 2°56.649 12.2 258 10.2 101220 44
2009-12-08 13:23 51°33.168 2°56.655 14.3 257 10.2 101250 45
2009-12-08 13:24 51°33.149 2°56.662 9.2 260 10.1 101240 43
2009-12-08 13:25 51°33.126 2°56.67 7.3 265 10.2 101250 44
2009-12-08 13:26 51°33.103 2°56.677 6.5 263 10.2 101260 46
2009-12-08 13:27 51°33.078 2°56.682 5 264 10.1 101240 43
2009-12-08 13:28 51°33.053 2°56.685 5.9 266 10.1 101240 42
2009-12-08 13:29 51°33.028 2°56.691 8.5 267 10.1 101250 43
2009-12-08 13:30 51°33.006 2°56.697 7.1 263 10.1 101260 42
2009-12-08 13:31 51°32.984 2°56.704 5.4 265 10 101260 45
2009-12-08 13:32 51°32.963 2°56.711 5.1 264 10 101240 45
2009-12-08 13:33 51°32.941 2°56.716 7.1 261 10 101240 42
2009-12-08 13:34 51°32.919 2°56.723 7.1 264 10 101250 44
2009-12-08 13:35 51°32.899 2°56.729 5.7 265 10 101260 46
2009-12-08 13:36 51°32.88 2°56.736 4.3 265 10 101250 43
2009-12-08 13:37 51°32.862 2°56.743 5.9 265 10.1 101260 44
2009-12-08 13:38 51°32.845 2°56.749 5.6 264 10.1 101250 46
2009-12-08 13:39 51°32.828 2°56.754 4.6 261 10 101250 43
2009-12-08 13:40 51°32.81 2°56.761 6.8 258 10 101250 46
2009-12-08 13:41 51°32.791 2°56.769 6.3 265 10 101250 41
2009-12-08 13:42 51°32.777 2°56.778 10.7 258 10.1 101250 43
2009-12-08 13:43 51°32.839 2°56.781 10.9 243 10.1 101260 44
2009-12-08 13:44 51°32.956 2°56.75 9.9 238 10 101230 42
2009-12-08 13:45 51°33.081 2°56.715 11.3 242 10.1 101250 45
2009-12-08 13:46 51°33.171 2°56.679 10.8 247 10.1 101250 44
2009-12-08 13:47 51°33.184 2°56.659 10.2 241 10.1 101240 43
2009-12-08 13:48 51°33.176 2°56.658 10.3 245 10.1 101230 43
2009-12-08 13:49 51°33.16 2°56.666 10.3 255 10.1 101240 45
2009-12-08 13:50 51°33.142 2°56.673 6.8 261 10.1 101260 46
2009-12-08 13:51 51°33.122 2°56.682 7.5 265 10.1 101270 46
2009-12-08 13:52 51°33.101 2°56.691 5 266 10 101280 42
2009-12-08 13:53 51°33.08 2°56.699 4.3 264 10 101260 42
2009-12-08 13:54 51°33.063 2°56.708 6.9 36 9.9 101270 42
2009-12-08 13:55 51°33.045 2°56.717 6.6 269 9.9 101290 42
2009-12-08 13:56 51°33.027 2°56.726 6 260 9.9 101280 43
2009-12-08 13:57 51°33.007 2°56.734 5.9 262 9.9 101280 41
2009-12-08 13:58 51°32.986 2°56.741 5.6 261 10 101270 43
2009-12-08 13:59 51°32.967 2°56.75 6.5 263 9.9 101280 42
2009-12-08 14:00 51°32.947 2°56.76 7.6 259 10 101280 45
2009-12-08 14:01 51°32.927 2°56.769 4.8 262 9.9 101280 43
2009-12-08 14:02 51°32.908 2°56.778 3.8 261 9.9 101270 42
2009-12-08 14:03 51°32.887 2°56.785 5.3 265 9.9 101280 46
2009-12-08 14:04 51°32.867 2°56.792 5.3 258 9.9 101280 46
2009-12-08 14:05 51°32.846 2°56.801 3.8 263 9.9 101280 45
2009-12-08 14:06 51°32.826 2°56.81 5.2 262 10 101280 45
2009-12-08 14:07 51°32.806 2°56.82 4.7 265 9.9 101280 44
2009-12-08 14:08 51°32.789 2°56.83 4.8 260 9.9 101280 46
2009-12-08 14:09 51°32.771 2°56.841 6 265 9.9 101290 41
2009-12-08 14:10 51°32.761 2°56.853 6 242 10 101280 46
2009-12-08 14:11 51°32.833 2°56.851 6.5 33 9.9 101270 42
2009-12-08 14:12 51°32.968 2°56.831 8.9 236 10 101270 43
2009-12-08 14:13 51°33.109 2°56.807 9.2 238 10 101260 44
2009-12-08 14:14 51°33.174 2°56.785 9.7 242 10.1 101290 45
2009-12-08 14:15 51°33.179 2°56.781 8.8 243 10.1 101280 43
2009-12-08 14:16 51°33.17 2°56.788 7.8 245 10.1 101290 43
2009-12-08 14:17 51°33.155 2°56.8 7.1 259 10.1 101300 43
2009-12-08 14:18 51°33.137 2°56.812 6.2 266 10.2 101300 42
2009-12-08 14:19 51°33.119 2°56.823 7.5 268 10.2 101310 44
2009-12-08 14:20 51°33.101 2°56.837 5.2 264 10.1 101300 41
2009-12-08 14:21 51°33.086 2°56.847 6.5 262 10.1 101310 43
2009-12-08 14:22 51°33.07 2°56.859 4.5 262 10.1 101310 43
2009-12-08 14:23 51°33.056 2°56.874 4.5 268 10.1 101300 45
2009-12-08 14:24 51°33.041 2°56.885 7.1 256 10.1 101310 44
2009-12-08 14:25 51°33.027 2°56.9 5.8 262 10.1 101310 46
2009-12-08 14:26 51°33.011 2°56.912 9.6 257 10.1 101310 41
2009-12-08 14:27 51°32.994 2°56.927 6.1 261 10.1 101310 44
2009-12-08 14:28 51°32.983 2°56.945 4.1 264 10.1 101310 42
2009-12-08 14:29 51°32.969 2°56.961 4.9 262 10.1 101310 44
2009-12-08 14:30 51°32.955 2°56.976 7.5 260 10 101310 43
2009-12-08 14:31 51°32.939 2°56.991 3.2 262 10.1 101320 45
2009-12-08 14:32 51°32.924 2°57.008 4.9 264 10 101330 42
2009-12-08 14:33 51°32.909 2°57.027 6.1 260 10.1 101310 43
2009-12-08 14:34 51°32.895 2°57.045 5.9 265 10.1 101310 42
2009-12-08 14:36 51°32.877 2°57.065 4.9 264 10.1 101320 43
2009-12-08 14:37 51°32.857 2°57.086 5.4 303 10 101310 46
2009-12-08 14:38 51°32.842 2°57.106 3.6 304 10 101330 43
2009-12-08 14:39 51°32.828 2°57.124 7.2 305 10.1 101330 42
2009-12-08 14:40 51°32.812 2°57.144 3.9 303 10.1 101330 46
2009-12-08 14:41 51°32.797 2°57.164 3.7 308 10.2 101330 43
2009-12-08 14:42 51°32.781 2°57.185 4.4 308 10.1 101330 41
2009-12-08 14:43 51°32.766 2°57.207 4.8 307 10.1 101330 45
2009-12-08 14:44 51°32.754 2°57.23 6.1 303 10.1 101330 42
2009-12-08 14:45 51°32.742 2°57.252 5 303 10.1 101330 41
2009-12-08 14:46 51°32.729 2°57.273 5 308 10.1 101330 42
2009-12-08 14:47 51°32.717 2°57.295 5.4 303 10.2 101330 41
2009-12-08 14:48 51°32.706 2°57.318 4.4 306 10.2 101330 46
2009-12-08 14:49 51°32.694 2°57.339 7.3 305 10.2 101320 41
2009-12-08 14:50 51°32.682 2°57.365 3.8 310 10.2 101330 43
2009-12-08 14:51 51°32.667 2°57.39 6.4 282 10.2 101330 42
2009-12-08 14:52 51°32.655 2°57.416 4.6 305 10.2 101330 42
2009-12-08 14:53 51°32.646 2°57.442 6 310 10.3 101330 42
2009-12-08 14:54 51°32.642 2°57.467 6.2 306 10.2 101330 41
2009-12-08 14:55 51°32.68 2°57.461 8.7 310 10.2 101300 42
2009-12-08 14:56 51°32.746 2°57.372 9.8 305 10.2 101290 43
2009-12-08 14:57 51°32.809 2°57.204 12.2 324 10.2 101280 42
2009-12-08 14:58 51°32.871 2°57.013 10.7 307 10.2 101290 43
2009-12-08 14:59 51°32.948 2°56.837 10.9 306 10.2 101290 43
2009-12-08 15:00 51°33.002 2°56.777 8.4 281 10.3 101300 42
2009-12-08 15:01 51°33.034 2°56.765 7.6 309 10.3 101310 42
2009-12-08 15:02 51°33.059 2°56.769 9.2 285 10.4 101320 42
2009-12-08 15:03 51°33.078 2°56.778 8.8 282 10.3 101320 45
2009-12-08 15:04 51°33.097 2°56.789 6.9 285 10.3 101330 44
2009-12-08 15:05 51°33.115 2°56.796 7.4 279 10.4 101310 46
2009-12-08 15:06 51°33.131 2°56.805 7.5 281 10.4 101310 42
2009-12-08 15:07 51°33.155 2°56.804 7.8 308 10.4 101330 45
2009-12-08 15:08 51°33.174 2°56.742 8.5 342 10.4 101310 45
2009-12-08 15:09 51°33.119 2°56.705 7.1 360 10.3 101320 44
2009-12-08 15:10 51°33.043 2°56.667 8 -999 10.4 101310 42
2009-12-08 15:11 51°32.958 2°56.628 8 355 10.3 101330 42
2009-12-08 15:12 51°32.806 2°56.522 8.2 347 10.3 101310 42
2009-12-08 15:13 51°32.65 2°56.389 11.9 347 10.3 101310 43
2009-12-08 15:14 51°32.509 2°56.229 10.8 352 10.3 101300 42
2009-12-08 15:15 51°32.348 2°56.111 11.6 348 10.4 101300 45
2009-12-08 15:16 51°32.24 2°55.968 10.9 344 10.4 101310 45
2009-12-08 15:17 51°32.205 2°55.877 5.6 339 10.3 101340 42
2009-12-08 15:18 51°32.191 2°55.824 8.5 284 10.4 101340 46
2009-12-08 15:19 51°32.198 2°55.833 8.4 308 10.3 101340 42
2009-12-08 15:20 51°32.202 2°55.86 7.7 281 10.4 101330 43
2009-12-08 15:21 51°32.201 2°55.896 7.4 305 10.3 101340 45
2009-12-08 15:22 51°32.198 2°55.934 9.6 280 10.4 101340 45
2009-12-08 15:23 51°32.195 2°55.971 10.3 284 10.4 101340 42
2009-12-08 15:24 51°32.223 2°55.969 9.7 304 10.3 101330 45
2009-12-08 15:25 51°32.217 2°55.928 9.8 278 10.3 101340 44
2009-12-08 15:26 51°32.195 2°55.944 7.3 6 10.3 101330 42
2009-12-08 15:27 51°32.181 2°55.979 7.7 7 10.3 101340 44
2009-12-08 15:28 51°32.173 2°56.019 7.6 18 10.3 101340 45
2009-12-08 15:29 51°32.166 2°56.061 7.2 22 10.3 101340 42
2009-12-08 15:30 51°32.157 2°56.105 7.4 23 10.3 101350 45
2009-12-08 15:31 51°32.153 2°56.144 7.4 29 10.4 101350 42
2009-12-08 15:32 51°32.15 2°56.186 6.7 26 10.3 101340 42
2009-12-08 15:33 51°32.148 2°56.229 5.2 29 10.3 101340 42
2009-12-08 15:34 51°32.146 2°56.27 6.1 20 10.3 101350 42
2009-12-08 15:35 51°32.143 2°56.312 7.5 24 10.4 101350 45
2009-12-08 15:36 51°32.129 2°56.357 7.4 21 10.4 101350 42
2009-12-08 15:37 51°32.074 2°56.39 8.8 5 10.4 101350 44
2009-12-08 15:38 51°31.974 2°56.328 12.3 355 10.3 101330 42
2009-12-08 15:39 51°31.807 2°56.267 9.5 360 10.3 101330 43
2009-12-08 15:40 51°31.636 2°56.218 9.8 358 10.4 101340 43
2009-12-08 15:41 51°31.459 2°56.167 13.1 356 10.5 101330 42
2009-12-08 15:42 51°31.287 2°56.113 10.4 356 10.4 101330 44
2009-12-08 15:43 51°31.115 2°56.055 10.4 354 10.4 101320 42
2009-12-08 15:44 51°30.949 2°55.993 11.1 355 10.4 101330 43
2009-12-08 15:45 51°30.78 2°55.928 10.6 355 10.4 101340 42
2009-12-08 15:46 51°30.616 2°55.866 12.2 352 10.5 101340 44
2009-12-08 15:47 51°30.452 2°55.808 12 356 10.5 101330 45
2009-12-08 15:48 51°30.285 2°55.747 11.1 353 10.6 101340 44
2009-12-08 15:49 51°30.113 2°55.696 10.9 350 10.6 101340 45
2009-12-08 15:50 51°29.943 2°55.647 11.7 353 10.5 101340 43
2009-12-08 15:51 51°29.775 2°55.595 10.7 354 10.5 101340 43
2009-12-08 15:52 51°29.606 2°55.545 9.4 353 10.5 101360 44
2009-12-08 15:53 51°29.435 2°55.491 11.1 352 10.6 101350 44
2009-12-08 15:54 51°29.269 2°55.435 10.7 350 10.5 101350 43
2009-12-08 15:55 51°29.097 2°55.377 12 352 10.5 101360 44
2009-12-08 15:56 51°28.932 2°55.324 12.1 350 10.5 101350 42
2009-12-08 15:57 51°28.763 2°55.267 11.7 353 10.5 101350 42
2009-12-08 15:58 51°28.595 2°55.212 10.8 352 10.5 101370 42
2009-12-08 15:59 51°28.428 2°55.155 12 350 10.6 101350 44
2009-12-08 16:00 51°28.262 2°55.101 9.9 350 10.5 101350 42
2009-12-08 16:01 51°28.097 2°55.046 9.2 351 10.5 101360 45
2009-12-08 16:02 51°27.93 2°54.99 10.8 350 10.5 101350 43
2009-12-08 16:03 51°27.77 2°54.934 10.4 350 10.5 101370 44
2009-12-08 16:04 51°27.602 2°54.884 10.3 352 10.5 101360 44
2009-12-08 16:05 51°27.441 2°54.833 10.2 351 10.5 101360 43
2009-12-08 16:06 51°27.273 2°54.782 11.9 352 10.5 101360 44
2009-12-08 16:07 51°27.112 2°54.732 11.7 349 10.5 101380 43
2009-12-08 16:08 51°26.949 2°54.682 11 348 10.4 101380 42
2009-12-08 16:09 51°26.787 2°54.634 10.4 353 10.5 101370 43
2009-12-08 16:10 51°26.623 2°54.586 10.5 351 10.5 101380 42
2009-12-08 16:11 51°26.457 2°54.538 9.1 347 10.5 101380 44
2009-12-08 16:12 51°26.296 2°54.494 11.2 352 10.5 101380 44
2009-12-08 16:13 51°26.13 2°54.445 8.2 353 10.5 101360 44
2009-12-08 16:14 51°25.968 2°54.393 9.3 352 10.5 101380 42
2009-12-08 16:15 51°25.801 2°54.339 7.8 350 10.5 101380 43
2009-12-08 16:16 51°25.639 2°54.285 7.6 351 10.5 101380 44
2009-12-08 16:17 51°25.472 2°54.228 9.9 349 10.5 101390 44
2009-12-08 16:18 51°25.306 2°54.174 9.5 347 10.5 101370 44
2009-12-08 16:19 51°25.142 2°54.117 9.5 347 10.5 101390 45
2009-12-08 16:20 51°24.977 2°54.06 6.5 346 10.5 101380 43
2009-12-08 16:21 51°24.813 2°54.007 9.7 352 10.4 101380 44
2009-12-08 16:22 51°24.648 2°53.947 7.1 350 10.5 101390 42
2009-12-08 16:23 51°24.491 2°53.892 9.4 350 10.5 101400 43
2009-12-08 16:24 51°24.325 2°53.84 8.7 354 10.5 101400 42
2009-12-08 16:25 51°24.164 2°53.786 8.7 350 10.5 101380 43
2009-12-08 16:26 51°24.003 2°53.738 9.1 348 10.5 101380 44
2009-12-08 16:27 51°23.841 2°53.685 6.6 352 10.5 101380 41
2009-12-08 16:28 51°23.681 2°53.633 8.9 348 10.5 101400 43
2009-12-08 16:29 51°23.518 2°53.581 9 349 10.5 101380 44
2009-12-08 16:30 51°23.362 2°53.529 9.5 350 10.5 101390 44
2009-12-08 16:31 51°23.196 2°53.514 7.8 352 10.5 101390 43
2009-12-08 16:32 51°23.03 2°53.549 7 354 10.5 101390 42
2009-12-08 16:33 51°22.857 2°53.59 7.1 351 10.5 101400 44
2009-12-08 16:34 51°22.689 2°53.62 6.7 351 10.5 101400 45
2009-12-08 16:35 51°22.517 2°53.642 8.1 350 10.5 101400 42
2009-12-08 16:36 51°22.345 2°53.662 7.1 351 10.5 101410 42
2009-12-08 16:37 51°22.176 2°53.683 8.4 348 10.5 101410 45
2009-12-08 16:38 51°22.006 2°53.675 7.1 348 10.6 101390 44
2009-12-08 16:39 51°21.838 2°53.647 6.2 344 10.5 101400 43
2009-12-08 16:40 51°21.637 2°53.603 7.8 344 10.5 101410 42
2009-12-08 16:41 51°21.485 2°53.567 8.2 342 10.5 101400 43
2009-12-08 16:42 51°21.304 2°53.525 8 342 10.5 101400 43
2009-12-08 16:43 51°21.14 2°53.488 8.5 343 10.4 101420 45
2009-12-08 16:44 51°20.973 2°53.448 8.8 345 10.4 101410 45
2009-12-08 16:45 51°20.806 2°53.408 8.2 339 10.4 101410 45
2009-12-08 16:46 51°20.641 2°53.365 9.6 341 10.5 101410 44
2009-12-08 16:47 51°20.477 2°53.323 9.8 341 10.5 101410 44
2009-12-08 16:48 51°20.316 2°53.264 9.5 339 10.5 101410 45
2009-12-08 16:49 51°20.155 2°53.201 9.9 338 10.4 101410 46
2009-12-08 16:50 51°19.995 2°53.142 10.7 343 10.3 101410 46
2009-12-08 16:51 51°19.834 2°53.084 10 340 10.3 101420 43
2009-12-08 16:52 51°19.673 2°53.026 10 341 10.4 101430 43
2009-12-08 16:53 51°19.514 2°52.968 7.3 339 10.4 101420 43
2009-12-08 16:54 51°19.355 2°52.911 9.4 343 10.4 101420 45
2009-12-08 16:55 51°19.196 2°52.855 8.5 342 10.4 101420 45
2009-12-08 16:56 51°19.038 2°52.797 9.6 341 10.4 101420 43
2009-12-08 16:57 51°18.881 2°52.74 10.9 341 10.4 101430 44
2009-12-08 16:58 51°18.721 2°52.68 10.1 340 10.4 101420 43
2009-12-08 16:59 51°18.562 2°52.619 10.7 340 10.4 101410 44
2009-12-08 17:00 51°18.406 2°52.559 10.4 340 10.4 101430 43
2009-12-08 17:01 51°18.246 2°52.495 10.4 338 10.4 101430 44
2009-12-08 17:02 51°18.086 2°52.44 11.7 341 10.4 101430 43
2009-12-08 17:03 51°17.926 2°52.389 10.3 338 10.3 101420 45
2009-12-08 17:04 51°17.769 2°52.336 11.8 333 10.3 101440 43
2009-12-08 17:05 51°17.609 2°52.284 10.9 334 10.2 101430 45
2009-12-08 17:06 51°17.445 2°52.254 11.7 337 10 101440 43
2009-12-08 17:07 51°17.278 2°52.256 10.4 336 9.9 101440 44
2009-12-08 17:08 51°17.109 2°52.294 10.9 341 9.9 101440 43
2009-12-08 17:09 51°16.946 2°52.368 9.7 342 9.8 101440 45
2009-12-08 17:10 51°16.783 2°52.473 10.3 344 9.8 101440 42
2009-12-08 17:11 51°16.62 2°52.582 10.5 342 9.8 101440 43
2009-12-08 17:12 51°16.459 2°52.701 9.8 339 9.7 101450 41
2009-12-08 17:13 51°16.298 2°52.821 7.8 341 9.6 101450 44
2009-12-08 17:14 51°16.136 2°52.935 10.4 337 9.4 101440 44
2009-12-08 17:15 51°16.007 2°53.04 8.2 344 9.3 101450 45
2009-12-08 17:16 51°15.922 2°53.176 8.3 353 9.2 101450 42
2009-12-08 17:17 51°15.846 2°53.343 7.7 353 9.1 101450 43
2009-12-08 17:18 51°15.757 2°53.51 7.3 352 9.1 101450 45
2009-12-08 17:19 51°15.659 2°53.685 7.5 351 9.1 101450 42
2009-12-08 17:20 51°15.556 2°53.858 7.6 348 9.1 101460 44
2009-12-08 17:21 51°15.45 2°54.029 7.7 349 9 101450 42
2009-12-08 17:22 51°15.35 2°54.192 7.3 350 8.9 101460 46
2009-12-08 17:23 51°15.267 2°54.334 6 356 8.8 101460 42
2009-12-08 17:24 51°15.215 2°54.441 5.7 355 8.8 101460 42
2009-12-08 17:25 51°15.18 2°54.525 5 356 8.8 101470 45
2009-12-08 17:26 51°15.153 2°54.603 5.3 359 8.7 101460 46
2009-12-08 17:27 51°15.116 2°54.672 6.1 347 8.7 101460 41
2009-12-08 17:28 51°15.06 2°54.736 6 344 8.7 101460 45
2009-12-08 17:29 51°14.999 2°54.801 6.6 343 8.7 101460 42
2009-12-08 17:30 51°14.879 2°54.878 9.5 341 8.7 101460 45
2009-12-08 17:31 51°14.715 2°54.956 9.3 335 8.6 101460 44
2009-12-08 17:32 51°14.55 2°55.011 10 336 8.5 101460 44
2009-12-08 17:33 51°14.389 2°55.069 8 344 8.4 101460 43
2009-12-08 17:34 51°14.258 2°55.26 7.5 350 8.3 101460 45
2009-12-08 17:35 51°14.117 2°55.413 6.4 337 8.4 101470 44
2009-12-08 17:36 51°13.988 2°55.509 5.3 340 8.3 101480 41
2009-12-08 17:37 51°13.876 2°55.59 5.2 337 8.2 101480 45
2009-12-08 17:38 51°13.777 2°55.678 4.3 347 8 101480 41
2009-12-08 17:39 51°13.724 2°55.776 2.5 350 7.9 101480 40
2009-12-08 17:40 51°13.687 2°55.868 2.5 353 7.8 101480 42
2009-12-08 17:41 51°13.663 2°55.954 1.6 354 7.7 101490 46